Location: Monfort
(47.1967°N, 0.2115°W)
Time: 11:53:18
(UTC+00:00)

Cosmos 44 - Pass Details

Date: 24 October 2020
Orbit: 577 x 784 km, 65.1° (Epoch: 27 November)

Event Time Altitude Azimuth Distance (km) Brightness Sun altitude
Rises 17:37:15 0° 183° (S) 2,838 6.6 -7.5°
Reaches altitude 10° 17:39:42 10° 170° (S) 1,967 5.6 -8.0°
Maximum altitude 17:43:25 27° 114° (ESE) 1,237 4.1 -8.6°
Drops below altitude 10° 17:47:19 10° 57° (ENE) 2,081 5.2 -9.2°
Enters shadow 17:47:34 - 55° (NE) 2,164 5.3 -9.3°
